Flag for El Salvador Weather past 2 weeks in San Salvador, El Salvador

Now
81 °F

Sunny.


Feels Like: 85 °F
Forecast: 67 / 88 °F
Wind: 9 mph from North

Location: San Salvador / Ilopango

Current Time: Jul 31, 2014 at 10:40:08 AM

Latest Report: Jul 31, 2014 at 9:50 AM


Visibility: 10 mi

Pressure: 30.01 "Hg

Humidity: 74%

Dew point: 72 °F

Location of San SalvadorLocation

Historic Weather in San Salvador — Graph

°F

San Salvador temperature yesterday

Maximum temperature yesterday: 90 °F (at 12:50 PM)
Minimum temperature yesterday: 70 °F (at 5:50 AM)
Average temperature yesterday: 81 °F

Past Weeks' High & Low Weather Summary

 TemperatureHumidityPressure
High91 °F (Jul 21, 1:50 PM)100% (Jul 16, 10:50 PM)30.07 "Hg (Jul 16, 10:50 PM)
Low68 °F (Jul 27, 5:50 AM)49% (Jul 20, 12:50 PM)29.80 "Hg (Jul 29, 6:50 PM)
Average81 °F76%29.99 "Hg
* Reported Jul 16 8:50 AM — Jul 31 8:50 AM, San Salvador, Weather by CustomWeather, © 2014

Note: Actual official high and low records may vary slightly from our data, if they occured in-between our weather recording intervals... More about our weather records

Advertising

San Salvador weather history for previous 24 hours

 ConditionsComfort  
Time TempWeatherWind HumidityBarometerVisibility
8:50 AM
Jul 31
79 °FSunny.12 mph74%29.98 "Hg10 mi
7:50 AM75 °FSunny.9 mph74%30.01 "Hg10 mi
6:50 AM72 °FSunny.9 mph83%30.01 "Hg10 mi
5:50 AM70 °FSunny.9 mph88%29.98 "Hg10 mi
11:50 PM
Jul 30
73 °FClear.6 mph94%30.01 "Hg10 mi
10:50 PM75 °FClear.No wind89%30.01 "Hg10 mi
9:50 PM77 °FClear.No wind83%30.01 "Hg10 mi
8:50 PM77 °FClear.3 mph83%30.01 "Hg10 mi
7:50 PM79 °FClear.2 mph84%29.98 "Hg10 mi
6:50 PM79 °FPassing clouds.2 mph84%29.98 "HgN/A
5:50 PM82 °FSunny.3 mph74%29.95 "Hg10 mi
4:50 PM90 °FSunny.2 mph59%29.92 "Hg10 mi
3:50 PM90 °FSunny.2 mph52%29.95 "Hg10 mi
2:50 PM90 °FSunny.3 mph55%29.98 "Hg10 mi
1:50 PM90 °FSunny.3 mph55%29.98 "Hg10 mi
12:50 PM90 °FSunny.3 mph55%30.01 "Hg10 mi
11:50 AM86 °FSunny.5 mph62%30.01 "Hg10 mi
10:50 AM86 °FSunny.3 mph59%30.01 "Hg10 mi
Weather by CustomWeather, © 2014

See weather overviewHow to use our weather pages